Wisconsin Dells, Wisconsin, United States (53965)
Lat: 43.63N, Lon: 89.77W
Wx Zone: WIZ057
Local Info
Past Weather Observations for Sunday, April 20, 2014

NOTE: This archive is for the closest National Weather Service station to Wisconsin Dells. Information may differ from the station used for current weather conditions.

Time Weather Temperature Dewpoint Humidity Pressure Winds Precip Visibility
23:55
Partly Cloudy
Fog And Mist
54°F / 12°C 52°F / 11°C 94% 29.95 in
(1014 mb)
S 9.2 mph
(S 15 kph)
- 4SM
23:35
Partly Cloudy
Fog And Mist
52°F / 11°C 50°F / 10°C 94% 29.98 in
(1015 mb)
Calm - 2 1/2SM
23:15
Overcast
Fog And Mist
54°F / 12°C 52°F / 11°C 94% 29.98 in
(1015 mb)
W 3.5 mph
(W 6 kph)
- 4SM
22:55
Overcast
Fog And Mist
54°F / 12°C 52°F / 11°C 94% 29.98 in
(1015 mb)
NW 3.5 mph
(NW 6 kph)
- 5SM
22:35
Mostly Cloudy
Fog And Mist
54°F / 12°C 52°F / 11°C 94% 29.98 in
(1015 mb)
Calm - 4SM
22:15
Clear
55°F / 13°C 50°F / 10°C 82% 29.98 in
(1015 mb)
Calm - 10SM
21:55
Partly Cloudy
55°F / 13°C 50°F / 10°C 82% 29.98 in
(1015 mb)
Calm - 10SM
21:35
Partly Cloudy
55°F / 13°C 52°F / 11°C 88% 29.98 in
(1015 mb)
Calm - 7SM
21:15
Partly Cloudy
55°F / 13°C 52°F / 11°C 88% 29.98 in
(1015 mb)
Calm - 7SM
20:55
Mostly Cloudy
55°F / 13°C 52°F / 11°C 88% 30.01 in
(1016 mb)
Calm - 7SM
20:35
Partly Cloudy
55°F / 13°C 54°F / 12°C 94% 30.01 in
(1016 mb)
Calm - 10SM
20:15
Partly Cloudy
55°F / 13°C 52°F / 11°C 88% 30.01 in
(1016 mb)
ENE 4.6 mph
(ENE 7 kph)
- 10SM
19:55
Overcast
57°F / 14°C 54°F / 12°C 88% 30.01 in
(1016 mb)
Calm - 10SM
19:35
Overcast
57°F / 14°C 54°F / 12°C 88% 30.01 in
(1016 mb)
Calm - 7SM
19:15
Overcast
57°F / 14°C 54°F / 12°C 88% 30.01 in
(1016 mb)
NNE 3.5 mph
(NNE 6 kph)
- 7SM
18:55
Overcast
57°F / 14°C 54°F / 12°C 88% 30.01 in
(1016 mb)
Calm - 7SM
18:35
Overcast
Fog And Mist
57°F / 14°C 54°F / 12°C 88% 30.01 in
(1016 mb)
Calm - 4SM
18:15
Mostly Cloudy
57°F / 14°C 54°F / 12°C 88% 30.01 in
(1016 mb)
Calm - 7SM
17:55
Partly Cloudy
59°F / 15°C 55°F / 13°C 88% 30.01 in
(1016 mb)
Calm - 10SM
17:35
Mostly Cloudy
59°F / 15°C 55°F / 13°C 88% 30.01 in
(1016 mb)
Calm - 10SM
17:15
Mostly Cloudy
59°F / 15°C 55°F / 13°C 88% 30.01 in
(1016 mb)
Calm - 10SM
16:55
Partly Cloudy
61°F / 16°C 55°F / 13°C 83% 30.01 in
(1016 mb)
Calm - 10SM
16:35
Mostly Cloudy
59°F / 15°C 55°F / 13°C 88% 30.04 in
(1017 mb)
Calm - 10SM
16:15
Overcast
Light Rain
59°F / 15°C 54°F / 12°C 82% 30.04 in
(1017 mb)
Calm - 7SM
15:55
Overcast
Light Rain
59°F / 15°C 54°F / 12°C 82% 30.04 in
(1017 mb)
Calm 0.01 in
(0.25 mm)
10SM
15:35
Overcast
Drizzle
59°F / 15°C 54°F / 12°C 82% 30.04 in
(1017 mb)
Calm 0.01 in
(0.25 mm)
10SM
15:15
Overcast
Light Rain
59°F / 15°C 52°F / 11°C 77% 30.04 in
(1017 mb)
S 5.8 mph
(S 9 kph)
0.01 in
(0.25 mm)
10SM
14:55
Overcast
Light Rain
59°F / 15°C 52°F / 11°C 77% 30.06 in
(1018 mb)
Calm 0.04 in
(1.02 mm)
7SM
14:35
Overcast
Light Rain
61°F / 16°C 52°F / 11°C 72% 30.06 in
(1018 mb)
SSE 6.9 mph
(SSE 11 kph)
0.01 in
(0.25 mm)
10SM
14:15
Overcast
Light Rain
61°F / 16°C 50°F / 10°C 68% 30.06 in
(1018 mb)
S 4.6 mph
(S 7 kph)
- 10SM
13:55
Overcast
Rain
63°F / 17°C 48°F / 9°C 59% 30.09 in
(1019 mb)
Calm - 10SM
13:35
Overcast
66°F / 19°C 45°F / 7°C 46% 30.09 in
(1019 mb)
W 4.6 mph
(W 7 kph)
- 10SM
13:15
Overcast
66°F / 19°C 43°F / 6°C 43% 30.09 in
(1019 mb)
SSW 3.5 mph
(SSW 6 kph)
- 10SM
12:55
Overcast
64°F / 18°C 45°F / 7°C 49% 30.09 in
(1019 mb)
SW 5.8 mph
(SW 9 kph)
- 10SM
12:35
Overcast
Light Rain
64°F / 18°C 46°F / 8°C 52% 30.09 in
(1019 mb)
S 8.1 mph
(S 13 kph)
- 10SM
12:15
Overcast
64°F / 18°C 43°F / 6°C 46% 30.09 in
(1019 mb)
Calm - 10SM
11:55
Overcast
64°F / 18°C 43°F / 6°C 46% 30.09 in
(1019 mb)
Calm - 10SM
11:35
Overcast
63°F / 17°C 43°F / 6°C 49% 30.12 in
(1020 mb)
SW 5.8 mph
(SW 9 kph)
- 10SM
11:15
Overcast
63°F / 17°C 41°F / 5°C 45% 30.12 in
(1020 mb)
SW 5.8 mph
(SW 9 kph)
- 10SM
10:55
Overcast
63°F / 17°C 41°F / 5°C 45% 30.12 in
(1020 mb)
SW 8.1 mph
(SW 13 kph)
- 10SM
10:35
Overcast
63°F / 17°C 41°F / 5°C 45% 30.12 in
(1020 mb)
SSW 6.9 mph
(SSW 11 kph)
- 10SM
10:15
Overcast
64°F / 18°C 39°F / 4°C 40% 30.12 in
(1020 mb)
SW 9.2 mph
(SW 15 kph)
- 10SM
09:55
Overcast
63°F / 17°C 39°F / 4°C 42% 30.12 in
(1020 mb)
SW 8.1 mph
(SW 13 kph)
- 10SM
09:35
Mostly Cloudy
63°F / 17°C 39°F / 4°C 42% 30.12 in
(1020 mb)
SW 11.5 mph
(SW 19 kph)
- 10SM
09:15
Partly Cloudy
63°F / 17°C 39°F / 4°C 42% 30.12 in
(1020 mb)
SW 9.2 mph
(SW 15 kph)
- 10SM
08:55
Mostly Cloudy
61°F / 16°C 39°F / 4°C 45% 30.12 in
(1020 mb)
SW 5.8 mph
(SW 9 kph)
- 10SM
08:35
Overcast
61°F / 16°C 39°F / 4°C 45% 30.12 in
(1020 mb)
SSE 5.8 mph
(SSE 9 kph)
- 10SM
08:15
Overcast
59°F / 15°C 37°F / 3°C 45% 30.12 in
(1020 mb)
SW 12.7 mph
(SW 20 kph)
- 10SM
07:55
Overcast
57°F / 14°C 37°F / 3°C 48% 30.12 in
(1020 mb)
S 11.5 mph
(S 19 kph)
- 10SM
07:35
Overcast
57°F / 14°C 37°F / 3°C 48% 30.12 in
(1020 mb)
S 10.4 mph
(S 17 kph)
- 10SM
07:15
Overcast
55°F / 13°C 37°F / 3°C 51% 30.12 in
(1020 mb)
S 10.4 mph
(S 17 kph)
- 10SM
06:55
Overcast
55°F / 13°C 37°F / 3°C 51% 30.12 in
(1020 mb)
S 9.2 mph
(S 15 kph)
- 10SM
06:35
Overcast
55°F / 13°C 37°F / 3°C 51% 30.12 in
(1020 mb)
S 10.4 mph
(S 17 kph)
- 10SM
06:15
Mostly Cloudy
55°F / 13°C 37°F / 3°C 51% 30.12 in
(1020 mb)
S 11.5 mph
(S 19 kph)
- 10SM
05:55
Partly Cloudy
55°F / 13°C 37°F / 3°C 51% 30.12 in
(1020 mb)
S 9.2 mph
(S 15 kph)
- 10SM
05:35
Clear
54°F / 12°C 37°F / 3°C 54% 30.12 in
(1020 mb)
S 8.1 mph
(S 13 kph)
- 10SM
05:15
Partly Cloudy
55°F / 13°C 37°F / 3°C 51% 30.12 in
(1020 mb)
S 8.1 mph
(S 13 kph)
- 10SM
04:55
Mostly Cloudy
55°F / 13°C 37°F / 3°C 51% 30.12 in
(1020 mb)
S 10.4 mph
(S 17 kph)
- 10SM
04:35
Mostly Cloudy
Light Rain
55°F / 13°C 37°F / 3°C 51% 30.12 in
(1020 mb)
S 8.1 mph
(S 13 kph)
- 10SM
04:15
Partly Cloudy
55°F / 13°C 36°F / 2°C 47% 30.12 in
(1020 mb)
S 8.1 mph
(S 13 kph)
- 10SM
03:55
Clear
55°F / 13°C 36°F / 2°C 47% 30.12 in
(1020 mb)
S 5.8 mph
(S 9 kph)
- 10SM
03:35
Mostly Cloudy
54°F / 12°C 36°F / 2°C 51% 30.12 in
(1020 mb)
S 5.8 mph
(S 9 kph)
- 10SM
03:15
Mostly Cloudy
55°F / 13°C 36°F / 2°C 47% 30.12 in
(1020 mb)
S 9.2 mph
(S 15 kph)
- 10SM
02:55
Partly Cloudy
55°F / 13°C 36°F / 2°C 47% 30.12 in
(1020 mb)
S 9.2 mph
(S 15 kph)
- 10SM
02:35
Mostly Cloudy
55°F / 13°C 36°F / 2°C 47% 30.12 in
(1020 mb)
S 11.5 mph
(S 19 kph)
- 10SM
02:15
Overcast
55°F / 13°C 36°F / 2°C 47% 30.12 in
(1020 mb)
S 12.7 mph
(S 20 kph)
- 10SM
01:55
Partly Cloudy
55°F / 13°C 34°F / 1°C 44% 30.12 in
(1020 mb)
S 15 mph
(S 24 kph)
- 10SM
01:35
Partly Cloudy
57°F / 14°C 34°F / 1°C 41% 30.12 in
(1020 mb)
S 13.8 mph
(S 22 kph)
- 10SM
01:15
Partly Cloudy
57°F / 14°C 34°F / 1°C 41% 30.12 in
(1020 mb)
S 12.7 mph
(S 20 kph)
- 10SM
00:55
Partly Cloudy
55°F / 13°C 34°F / 1°C 44% 30.12 in
(1020 mb)
S 12.7 mph
(S 20 kph)
- 10SM
00:35
Partly Cloudy
57°F / 14°C 34°F / 1°C 41% 30.12 in
(1020 mb)
S 11.5 mph
(S 19 kph)
- 10SM
00:15
Clear
55°F / 13°C 34°F / 1°C 44% 30.12 in
(1020 mb)
S 9.2 mph
(S 15 kph)
- 10SM
Time Weather Temperature Dewpoint Humidity Pressure Winds Precip Visibility


Weather for websites

WeatherForYou.com, LLC is not responsible for any damages or problems caused by this service. Current weather conditions are obtained from the closest station including government and personal stations which may have varying degrees of accuracy. Weather forecasts are derived from the NOAA NDFD. Like all things, this site belongs to Jesus Christ... He just trusts me to maintain it. If you have any questions or comments email webmaster@weatherforyou.com

Copyright © 2014, WeatherForYou.com LLC. All rights reserved.